星链-32906 (STARLINK-32906)

导读

STARLINK-32906是美国(US)SpaceX星链计划中的一颗卫星,于2025年2月23日发射。作为星链星座的组成部分,它主要服务于全球卫星互联网项目,旨在为全球范围尤其是偏远地区提供低延迟、高速率的宽带互联网接入服务,进一步扩充星链星座的网络覆盖能力与服务容量。

基本信息
目录编号:
63080
目录名称:
STARLINK-32906
国际标识:
2025-037D
轨道中心:
EARTH
卫星名称:
星链-32906
卫星全名:
星链-32906 (STARLINK-32906)
卫星状态:
在轨 (已飞行476 天)
发射日期:
2025-02-23 UTC
国别 :
美国 (US)
星等 :
--
轨道信息
数据来源 国际轨道数据 AOE轨道数据
星历时间 2026-06-14T04:46:52+0800
11小时前
查看轨道信息
2026-06-14T04:00:00+0800
11小时前
查看轨道信息
半长轴 6950.173km 6950.198km
偏心率 0.0002767 0.0000029
轨道倾角 70.001° 69.980°
近地点辐角 268.273° 215.380°
升交点赤经 112.144° 112.252°
平近点角 91.811° 329.189°
近地点 570.112km 572.04km
远地点 573.96km 572.082km
周期 96.107分钟 96.107分钟
每日圈数 14.983366 14.983284
详细信息
固有亮度:
5
最大亮度:
2.5
卫星平台:
Starlink V1.0
覆盖范围:
全球
运营商:
太空探索技术公司
运营商所在国:
美国
制造商(研发单位):
太空探索技术公司
制造商所在国:
美国
使用方式:
暂无
卫星简介
Starlink 计划是 SpaceX 推出的全球卫星互联网项目,通过发射低轨道卫星,为全球尤其是偏远地区提供高速、低延迟的互联网服务。自 2019 年起,Starlink 已部署数千颗卫星,旨在缩小全球数字鸿沟,推动互联网普及。该项目还为军事、航空等行业提供通信支持,带来广泛经济效益。
2D轨道图
3D轨道图
轨道高度分析图
轨道倾角分析图
轨道综合分析图
查看轨道综合分析图